Location: Newark
(40.3500°N, 15.2333°E)
Time: 04:30:40
(UTC+00:00)

Vanguard 3 - Visible Passes

Search period start: 23 January 2020 00:00
Search period end: 02 February 2020 00:00
Orbit: 507 x 3263 km, 33.4° (Epoch: 22 January)

Date Brightness Start Highest point End Pass type
(mag) Time Alt. Az. Time Alt. Az. Time Alt. Az.
23 Jan 10.5 16:12:05 10° SW 16:30:43 50° SSE 16:46:00 10° E visible
23 Jan 9.5 18:27:11 10° WSW 18:46:21 66° S 18:51:32 46° ESE visible
23 Jan 10.0 20:44:43 10° W 20:56:06 43° WSW 20:56:06 43° WSW visible
24 Jan 10.1 17:10:22 10° WSW 17:29:54 62° SSE 17:41:43 21° E visible
24 Jan 9.3 19:27:00 10° W 19:45:24 66° S 19:46:17 65° S visible
24 Jan 10.7 21:45:01 10° W 21:50:51 24° W 21:50:51 24° W visible
25 Jan 9.7 18:09:37 10° WSW 18:29:14 68° S 18:36:27 38° ESE visible
25 Jan 9.8 20:27:07 10° W 20:41:01 50° SW 20:41:01 50° SW visible
26 Jan 10.2 16:52:55 10° WSW 17:12:34 65° SSE 17:26:38 15° E visible
26 Jan 9.4 19:09:25 10° W 19:28:23 65° S 19:31:12 58° SSE visible
26 Jan 10.5 21:27:30 10° W 21:35:46 29° WSW 21:35:46 29° WSW visible
27 Jan 9.9 17:52:09 10° WSW 18:12:01 69° S 18:21:24 31° ESE visible
27 Jan 9.7 20:09:31 10° W 20:25:58 54° SW 20:25:58 54° SW visible
27 Jan 11.1 22:28:43 10° W 22:30:32 13° W 22:30:32 13° W visible
28 Jan 10.3 16:35:36 10° WSW 16:55:09 67° S 17:11:37 10° E visible
28 Jan 9.6 18:51:54 10° W 19:11:16 65° SSW 19:16:12 49° SE visible
28 Jan 10.4 21:09:59 10° W 21:20:46 33° WSW 21:20:46 33° WSW visible
29 Jan 10.1 17:34:49 10° W 17:54:43 69° S 18:06:26 24° ESE visible
29 Jan 9.7 19:51:58 10° W 20:09:58 53° SSW 20:11:01 52° SSW visible
29 Jan 11.0 22:11:31 10° W 22:15:35 16° WSW 22:15:35 16° WSW visible
30 Jan 10.3 16:18:27 10° WSW 16:37:42 68° S 16:55:09 10° E visible
30 Jan 9.9 18:34:28 10° W 18:54:02 64° SSW 19:01:18 39° SE visible
30 Jan 10.3 20:52:30 10° W 21:05:53 35° SW 21:05:53 35° SW visible
31 Jan 10.2 17:17:35 10° W 17:37:20 69° S 17:51:38 17° ESE visible
31 Jan 9.9 19:34:28 10° W 19:52:45 51° SSW 19:56:13 45° S visible
31 Jan 10.9 21:54:25 10° W 22:00:47 18° WSW 22:00:47 18° WSW visible
01 Feb 10.1 18:17:08 10° W 18:36:41 62° SSW 18:46:36 29° SE visible
01 Feb 10.3 20:35:05 10° W 20:50:39 35° SW 20:51:11 34° SW visible
